Weather History for Balmaceda, Chile

Change the Weather History Date:

Monday, March 17, 2014

  Actual Average Record
Temperature  
Mean Temperature 48 °F -  
Max Temperature 64 °F - - ()
Min Temperature 32 °F - - ()
Degree Days  
Heating Degree Days 17    
Moisture  
Dew Point 39 °F    
Average Humidity 70    
Maximum Humidity 93    
Minimum Humidity 35    
Precipitation  
Precipitation 0.00 in 0.06 in - ()
Sea Level Pressure  
Sea Level Pressure 30.08 in    
Wind  
Wind Speed 5 mph ()    
Max Wind Speed 21 mph    
Max Gust Speed -    
Visibility 5.8 miles    
Events Fog    
T = Trace of Precipitation, MM = Missing Value Source: Averaged Metar Reports

Daily Weather History Graph

Daily Weather History Graph

Search for Another Location

Airport:

Trip Planner

Search our weather history database for the weather conditions in past years. The results will help you decide how hot, cold, wet, or windy it might be!

Date:

Astronomy

Mar. 17, 2014 Rise Set
Actual Time 7:45 AM CLST 8:04 PM CLST
Civil Twilight 7:15 AM CLST 8:34 PM CLST
Nautical Twilight 6:39 AM CLST 9:09 PM CLST
Astronomical Twilight 6:03 AM CLST 9:45 PM CLST
Moon 8:21 PM CLST (3/17) 8:41 AM CLST (3/17)
Length of Visible Light 13h 18m
Length of Day
12h 19m
Full, 99% of the Moon is Illuminated
Mar 17
Full
Mar 23
Last Quarter
Mar 30
New
Apr 7
First Quarter
Apr 15
Full

Hourly Weather History & Observations

Time (CLST) Temp. Windchill Dew Point Humidity Pressure Visibility Wind Dir Wind Speed Gust Speed Precip Events Conditions
12:00 AM 46 °F - 38 °F 65% 30.04 in 25 mi 1.2 mph - -  
12:00 AM 46.4 °F - 37.4 °F 71% 30.01 in 6.2 mi Calm Calm - N/A   Mostly Cloudy
2:00 AM 44.6 °F - 39.2 °F 81% 30.04 in 6.2 mi NNE 2.3 mph - N/A   Mostly Cloudy
3:00 AM 42 °F - 38 °F 79% 30.09 in 31 mi 1.2 mph - -   Clear
3:00 AM 42.8 °F - 37.4 °F 81% 30.04 in 6.2 mi Variable 1.2 mph - N/A   Unknown
4:00 AM 41.0 °F - 37.4 °F 87% 30.04 in 6.2 mi Calm Calm - N/A   Mostly Cloudy
5:00 AM 41.0 °F - 37.4 °F 87% 30.06 in 6.2 mi East 1.2 mph - N/A   Mostly Cloudy
6:00 AM 39 °F - 36 °F 84% 30.14 in 31 mi 1.2 mph - -  
6:00 AM 39.2 °F - 35.6 °F 87% 30.06 in - Calm Calm - N/A   Clear
7:00 AM 33.8 °F - 32.0 °F 93% 30.09 in 0.4 mi Calm Calm - N/A Fog Fog
8:00 AM 32.0 °F - 28.4 °F 87% 30.09 in - Calm Calm - N/A   Clear
9:00 AM 33 °F - 32 °F 93% 30.22 in 5 mi Calm Calm - -  
9:00 AM 33.8 °F - 32.0 °F 93% 30.12 in 5.0 mi Calm Calm - N/A Fog Patches of Fog
10:00 AM 39.2 °F - 37.4 °F 93% 30.12 in 6.2 mi East 2.3 mph - N/A Fog Mostly Cloudy
10:10 AM 41.0 °F - 39.2 °F 93% 30.12 in 6.2 mi Calm Calm - N/A Fog Mostly Cloudy
11:00 AM 48.2 °F - 41.0 °F 76% 30.12 in 6.2 mi Variable 2.3 mph - N/A   Mostly Cloudy
12:00 PM 54 °F - 44 °F 59% 30.15 in 25 mi WNW 8.1 mph - -   Partly Cloudy
12:02 PM 53.6 °F - 44.6 °F 72% 30.12 in - WNW 8.1 mph - N/A   Clear
1:00 PM 57.2 °F - 42.8 °F 59% 30.12 in 6.2 mi NNW 13.8 mph - N/A   Partly Cloudy
2:00 PM 59.0 °F - 41.0 °F 51% 30.06 in 6.2 mi NW 16.1 mph - N/A   Partly Cloudy
3:00 PM 62 °F - 42 °F 35% 30.06 in 25 mi NW 16.1 mph - -   Scattered Clouds
3:00 PM 62.6 °F - 41.0 °F 45% 30.06 in 6.2 mi NW 16.1 mph - N/A   Partly Cloudy
4:00 PM 62.6 °F - 41.0 °F 45% 30.04 in 6.2 mi NW 18.4 mph - N/A   Partly Cloudy
5:00 PM 62.6 °F - 41.0 °F 45% 30.04 in 6.2 mi NW 19.6 mph - N/A   Partly Cloudy
6:00 PM 62.6 °F - 41.0 °F 45% 30.04 in 6.2 mi WNW 19.6 mph - N/A   Partly Cloudy
7:00 PM 59.0 °F - 41.0 °F 51% 30.04 in - WNW 20.7 mph - N/A   Clear
8:00 PM 55.4 °F - 41.0 °F 58% 30.06 in - NW 16.1 mph - N/A   Clear
9:00 PM 53 °F - 40 °F 51% 30.08 in 31 mi NW 16.1 mph - -  
9:00 PM 53.6 °F - 41.0 °F 62% 30.06 in - NW 16.1 mph - N/A   Clear
10:00 PM 50.0 °F - 39.2 °F 66% 30.06 in 6.2 mi NW 10.4 mph - N/A   Unknown
11:00 PM 44.6 °F 42.2 °F 39.2 °F 81% 30.06 in 6.2 mi WNW 4.6 mph - N/A   Unknown